Change the Weather History Date:

Tuesday, November 12, 2013

  Actual Average Record
Temperature  
Mean Temperature 22 °F -  
Max Temperature 28 °F 44 °F 63 °F (1964)
Min Temperature 17 °F 27 °F 12 °F (1976)
Degree Days  
Heating Degree Days 42    
Moisture  
Dew Point 14 °F    
Average Humidity 72    
Maximum Humidity 86    
Minimum Humidity 51    
Precipitation  
Precipitation 0.00 in - - ()
Sea Level Pressure  
Sea Level Pressure 30.58 in    
Wind  
Wind Speed 9 mph (WNW)    
Max Wind Speed 16 mph    
Max Gust Speed -    
Visibility 10 miles    
Events      
Averages and records for this station are not official NWS values.
T = Trace of Precipitation, MM = Missing Value Source: NWS Daily Summary

Daily Weather History Graph

Daily Weather History Graph

Search for Another Location

Airport or City:

Trip Planner

Search our weather history database for the weather conditions in past years. The results will help you decide how hot, cold, wet, or windy it might be!

Date:

Astronomy

Nov. 12, 2013 Rise Set
Actual Time 6:41 AM CST 4:31 PM CST
Civil Twilight 6:11 AM CST 5:02 PM CST
Nautical Twilight 5:37 AM CST 5:36 PM CST
Astronomical Twilight 5:03 AM CST 6:09 PM CST
Moon 1:52 PM CST (11/12) 1:23 AM CST (11/12)
Length of Visible Light 10h 50m
Length of Day
9h 49m
Waxing Gibbous, 76% of the Moon is Illuminated
Nov 12
Waxing Gibbous
Nov 17
Full
Nov 25
Last Quarter
Dec 2
New
Dec 9
First Quarter

Hourly Weather History & Observations

Time (CST) Temp. Windchill Dew Point Humidity Pressure Visibility Wind Dir Wind Speed Gust Speed Precip Events Conditions
12:15 AM 23.0 °F 14.7 °F 14.0 °F 68% 30.52 in 10.0 mi NNW 6.9 mph - N/A   Mostly Cloudy
12:35 AM 23.0 °F 13.9 °F 14.0 °F 68% 30.52 in 10.0 mi NNW 8.1 mph - N/A   Clear
12:55 AM 23.0 °F 15.8 °F 14.0 °F 68% 30.53 in 10.0 mi NNW 5.8 mph - N/A   Clear
1:15 AM 21.2 °F 12.6 °F 12.2 °F 68% 30.53 in 10.0 mi NNW 6.9 mph - N/A   Clear
1:35 AM 21.2 °F 12.6 °F 14.0 °F 74% 30.54 in 10.0 mi NW 6.9 mph - N/A   Clear
1:55 AM 23.0 °F 13.9 °F 14.0 °F 68% 30.54 in 10.0 mi NW 8.1 mph - N/A   Clear
2:15 AM 21.2 °F 10.9 °F 15.8 °F 80% 30.55 in 10.0 mi NW 9.2 mph - N/A   Clear
2:35 AM 21.2 °F 10.9 °F 15.8 °F 80% 30.55 in 10.0 mi NW 9.2 mph - N/A   Clear
2:55 AM 21.2 °F 10.9 °F 15.8 °F 80% 30.56 in 10.0 mi NW 9.2 mph - N/A   Clear
3:15 AM 21.2 °F 11.7 °F 15.8 °F 80% 30.57 in 10.0 mi NW 8.1 mph - N/A   Scattered Clouds
3:35 AM 21.2 °F 10.9 °F 15.8 °F 80% 30.58 in 10.0 mi NW 9.2 mph - N/A   Clear
3:55 AM 21.2 °F 11.7 °F 15.8 °F 80% 30.58 in 10.0 mi NW 8.1 mph - N/A   Clear
4:15 AM 21.2 °F 10.1 °F 15.8 °F 80% 30.59 in 10.0 mi NW 10.4 mph - N/A   Clear
4:35 AM 21.2 °F 10.1 °F 15.8 °F 80% 30.61 in 10.0 mi NW 10.4 mph - N/A   Clear
5:45 AM 19.4 °F 7.2 °F 15.8 °F 86% 30.62 in 10.0 mi NW 11.5 mph - N/A   Clear
6:45 AM 17.6 °F 5.0 °F 14.0 °F 86% 30.65 in 10.0 mi WNW 11.5 mph - N/A   Clear
7:45 AM 19.4 °F 7.2 °F 14.0 °F 80% 30.67 in 10.0 mi WNW 11.5 mph - N/A   Clear
9:45 AM 23.0 °F 11.7 °F 15.8 °F 74% 30.68 in 10.0 mi West 11.5 mph - N/A   Clear
10:45 AM 24.8 °F 11.9 °F 15.8 °F 69% 30.67 in 10.0 mi WNW 16.1 mph - N/A   Clear
11:45 AM 26.6 °F 15.2 °F 15.8 °F 64% 30.65 in 10.0 mi West 13.8 mph - N/A   Partly Cloudy
12:45 PM 28.4 °F 18.0 °F 15.8 °F 59% 30.64 in 10.0 mi WNW 12.7 mph - N/A   Partly Cloudy
1:45 PM 28.4 °F 18.5 °F 15.8 °F 59% 30.63 in 10.0 mi West 11.5 mph - N/A   Clear
2:45 PM 28.4 °F 17.5 °F 12.2 °F 51% 30.61 in 10.0 mi West 13.8 mph - N/A   Clear
3:45 PM 26.6 °F 16.2 °F 12.2 °F 55% 30.60 in 10.0 mi West 11.5 mph - N/A   Clear
4:45 PM 24.8 °F 16.1 °F 12.2 °F 59% 30.60 in 10.0 mi West 8.1 mph - N/A   Clear
5:45 PM 24.8 °F 15.3 °F 12.2 °F 59% 30.60 in 10.0 mi West 9.2 mph - N/A   Clear
7:45 PM 21.2 °F 10.9 °F 12.2 °F 68% 30.57 in 10.0 mi West 9.2 mph - N/A   Clear
8:15 PM 23.0 °F 13.1 °F 14.0 °F 68% 30.58 in 10.0 mi West 9.2 mph - N/A   Clear
8:35 PM 23.0 °F 14.7 °F 14.0 °F 68% 30.58 in 10.0 mi West 6.9 mph - N/A   Clear
8:45 PM 21.2 °F 9.5 °F 12.2 °F 68% 30.58 in 10.0 mi West 11.5 mph - N/A   Clear
8:55 PM 23.0 °F 13.9 °F 14.0 °F 68% 30.58 in 10.0 mi West 8.1 mph - N/A   Clear
9:15 PM 21.2 °F 10.9 °F 14.0 °F 74% 30.58 in 10.0 mi West 9.2 mph - N/A   Clear
9:35 PM 21.2 °F 11.7 °F 14.0 °F 74% 30.57 in 10.0 mi WSW 8.1 mph - N/A   Clear
9:55 PM 21.2 °F 12.6 °F 14.0 °F 74% 30.56 in 10.0 mi WSW 6.9 mph - N/A   Clear
10:15 PM 21.2 °F 12.6 °F 14.0 °F 74% 30.56 in 10.0 mi WSW 6.9 mph - N/A   Clear
10:35 PM 19.4 °F 9.5 °F 14.0 °F 80% 30.55 in 10.0 mi WSW 8.1 mph - N/A   Clear
10:55 PM 19.4 °F 9.5 °F 14.0 °F 80% 30.55 in 10.0 mi WSW 8.1 mph - N/A   Clear
11:15 PM 19.4 °F 11.5 °F 14.0 °F 80% 30.54 in 10.0 mi WSW 5.8 mph - N/A   Clear
11:35 PM 19.4 °F 10.4 °F 14.0 °F 80% 30.53 in 10.0 mi WSW 6.9 mph - N/A   Clear
11:55 PM 19.4 °F 8.6 °F 14.0 °F 80% 30.54 in 10.0 mi West 9.2 mph - N/A   Clear